FW1587 Weather Reports


time (UTC)temp
F
wind
direction
speed
knots
gust
knots
rain 1hr
in
rain 24hr
in
rain mn
in
humidity
%
barometer
mb
20260506150045 48 231 4.3 9.6 0.00 0.31 0.25 1 1006.8
20260506144559 48 285 4.3 8.7 0.00 0.31 0.25 1 1006.6
20260506143141 48 245 1.7 8.7 0.00 0.31 0.25 1 1006.6
20260506141542 47 225 7.0 13.0 0.01 0.31 0.25 1 1006.5
20260506140039 47 241 0.9 8.7 0.01 0.31 0.25 1 1006.4
20260506134534 47 198 0.9 6.1 0.02 0.31 0.25 1 1006.5
20260506133033 47 219 0.9 7.0 0.03 0.31 0.25 1 1006.5
20260506131530 47 292 0.9 11.3 0.06 0.31 0.24 1 1006.4
20260506130026 47 227 1.7 9.6 0.12 0.31 0.24 1 1006.2
20260506124522 47 257 1.7 12.2 0.18 0.30 0.24 1 1005.9
20260506123019 47 310 3.5 11.3 0.19 0.28 0.22 1 1005.5
20260506121509 47 236 5.2 16.5 0.17 0.25 0.19 1 1005.4
20260506120018 48 274 7.0 15.6 0.13 0.20 0.14 1 1005.3
20260506114504 50 141 1.7 7.0 0.06 0.13 0.07 1 1005.1
20260506113100 51 240 2.6 9.6 0.03 0.10 0.04 1 1004.7
20260506111558 51 287 1.7 6.1 0.02 0.09 0.02 1 1004.6
20260506110049 52 314 0.0 2.6 0.02 0.08 0.02 1 1004.6
20260506103042 52 13 1.7 4.3 0.01 0.07 0.01 1 1004.5
20260506101537 53 27 2.6 5.2 0.01 0.07 0.01 1 1004.4
20260506100032 52 35 3.5 5.2 0.00 0.06 0.00 1 1004.3
20260506093034 52 24 0.0 3.5 0.00 0.06 0.00 1 1004.5
20260506091526 52 40 0.9 2.6 0.00 0.06 0.00 1 1004.4
20260506090023 52 22 2.6 4.3 0.00 0.06 0.00 1 1004.2
20260506083009 52 57 0.9 3.5 0.00 0.06 0.00 1 1004.2
20260506081505 52 50 0.9 3.5 0.00 0.06 0.00 2 1004.3
20260506073105 52 93 0.0 2.6 0.00 0.06 0.00 1 1004.3
20260506071550 52 159 0.9 5.2 0.00 0.06 0.00 1 1004.4
20260506061533 50 325 0.0 0.9 0.00 0.06 0.00 1 1004.3
20260506043006 47 302 0.9 3.5 0.00 0.06 0.00 1 1004.4
20260506041502 47 268 0.9 5.2 0.00 0.06 0.00 1 1004.3
20260506040057 48 274 0.0 0.9 0.00 0.06 0.00 1 1004.5
20260506033108 48 283 1.7 4.3 0.00 0.06 0.00 1 1004.8
20260506031552 48 261 0.0 3.5 0.00 0.06 0.00 1 1005.1
20260506030056 48 249 0.0 2.6 0.00 0.06 0.00 1 1005.2
20260506023033 48 251 0.0 2.6 0.00 0.06 0.00 1 1005.6
20260506021529 49 251 0.9 1.7 0.00 0.06 0.00 1 1005.6
20260506020025 49 284 0.0 1.7 0.00 0.06 0.00 1 1005.8
20260506013017 50 106 0.0 2.6 0.00 0.06 0.00 1 1006.1
20260506011532 50 285 0.9 6.1 0.00 0.06 0.00 1 1006.1
20260506010009 50 254 1.7 5.2 0.00 0.06 0.00 1 1006.4
20260506003002 50 263 0.0 3.5 0.00 0.06 0.00 1 1006.5
20260506001601 49 218 0.9 2.6 0.00 0.06 0.00 1 1006.9
20260506000057 49 232 1.7 4.3 0.00 0.06 0.00 1 1007.3
20260505234648 49 219 0.9 2.6 0.00 0.06 0.00 1 1007.1
20260505233047 49 240 0.9 2.6 0.00 0.06 0.00 1 1007.1
20260505231544 50 267 0.9 3.5 0.00 0.06 0.00 1 1007.2
20260505230037 50 218 0.0 3.5 0.00 0.06 0.00 1 1007.4
20260505224636 51 243 2.6 7.8 0.00 0.06 0.00 1 1007.4
20260505223032 51 239 0.9 3.5 0.00 0.06 0.00 1 1007.4
20260505221524 51 217 0.0 5.2 0.00 0.06 0.00 1 1007.3
20260505220042 50 250 0.0 6.1 0.00 0.06 0.00 1 1007.4
20260505214621 50 243 1.7 5.2 0.00 0.06 0.06 1 1007.8
20260505213022 51 241 1.7 4.3 0.00 0.06 0.06 1 1007.8
20260505211618 50 223 2.6 6.1 0.00 0.06 0.06 1 1008.0
20260505210018 50 229 3.5 6.1 0.00 0.06 0.06 1 1007.9
20260505204618 50 231 1.7 3.5 0.00 0.06 0.06 1 1007.8
20260505203021 50 231 0.9 6.1 0.00 0.06 0.06 1 1007.9
20260505201519 49 241 0.9 4.3 0.00 0.06 0.06 1 1007.7
20260505200019 49 250 1.7 6.1 0.00 0.06 0.06 1 1007.7
20260505194618 49 241 1.7 7.0 0.00 0.06 0.06 1 1007.5
20260505193025 50 248 3.5 7.0 0.00 0.06 0.06 1 1007.3
20260505191519 50 236 2.6 7.0 0.00 0.06 0.06 1 1007.2
20260505190011 50 235 3.5 7.8 0.00 0.06 0.06 1 1007.1
20260505184607 50 245 2.6 6.1 0.00 0.06 0.06 1 1007.0
20260505183005 51 205 2.6 4.3 0.00 0.06 0.06 1 1007.0
20260505181504 51 218 0.0 5.2 0.00 0.06 0.06 1 1007.2
20260505180004 51 239 3.5 6.1 0.01 0.06 0.06 1 1007.0
20260505174600 51 198 1.7 5.2 0.01 0.06 0.06 1 1007.2
20260505173100 52 192 1.7 7.0 0.01 0.06 0.06 1 1007.3
20260505171555 52 215 1.7 3.5 0.02 0.06 0.06 1 1007.0
20260505170050 52 218 1.7 4.3 0.04 0.06 0.06 1 1007.0
20260505164556 52 158 0.9 2.6 0.05 0.06 0.06 1 1006.7
20260505163044 51 216 0.0 2.6 0.06 0.06 0.06 1 1006.6
20260505161549 51 249 1.7 8.7 0.06 0.06 0.06 1 1006.6
20260505153025 54 283 4.3 11.3 0.00 0.00 0.00 18 1006.0
20260505151520 56 287 2.6 10.4 0.00 0.00 0.00 35 1005.8